GW1094 Weather Reports


Display with metric or nautical units.
time (UTC)temp
F
wind
direction
speed
MPH
gust
MPH
rain 1hr
in
rain 24hr
in
rain mn
in
humidity
%
barometer
mb
20260510123216 41 96 0.0 1.0 0.00 0.00 0.00 87 4101.4
20260510122712 41 86 1.0 1.0 0.00 0.00 0.00 86 4101.1
20260510122209 41 102 0.0 0.0 0.00 0.00 0.00 86 4101.4
20260510121705 41 64 0.0 0.0 0.00 0.00 0.00 86 4101.1
20260510121203 41 71 1.0 1.0 0.00 0.00 0.00 86 4101.1
20260510120659 40 340 1.0 2.0 0.00 0.00 0.00 86 4101.1
20260510120155 40 55 1.0 2.0 0.00 0.00 0.00 87 4101.1
20260510115646 40 73 2.0 2.0 0.00 0.00 0.00 88 4101.1
20260510115144 39 68 0.0 0.0 0.00 0.00 0.00 89 4101.1
20260510114640 39 68 0.0 1.0 0.00 0.00 0.00 89 4100.7
20260510114136 39 67 0.0 1.0 0.00 0.00 0.00 89 4101.1
20260510113631 39 63 1.0 1.0 0.00 0.00 0.00 89 4100.7
20260510113129 39 65 2.0 2.0 0.00 0.00 0.00 89 4101.1
20260510112625 39 80 2.0 2.0 0.00 0.00 0.00 89 4100.7
20260510112122 39 80 1.0 1.0 0.00 0.00 0.00 89 4100.4
20260510111618 39 80 1.0 1.0 0.00 0.00 0.00 90 4100.4
20260510111114 39 81 0.0 1.0 0.00 0.00 0.00 90 4100.0
20260510110610 38 82 1.0 1.0 0.00 0.00 0.00 89 4100.0
20260510110108 38 85 1.0 2.0 0.00 0.00 0.00 87 4100.0
20260510105603 38 69 1.0 2.0 0.00 0.00 0.00 86 4100.0
20260510105057 38 67 1.0 2.0 0.00 0.00 0.00 87 4100.0
20260510104555 38 67 0.0 1.0 0.00 0.00 0.00 88 4099.7
20260510104051 37 80 1.0 1.0 0.00 0.00 0.00 87 4099.7
20260510103548 37 73 1.0 1.0 0.00 0.00 0.00 88 4099.4
20260510103044 37 69 0.0 0.0 0.00 0.00 0.00 89 4099.7
20260510102540 38 73 0.0 0.0 0.00 0.00 0.00 89 4099.4
20260510102036 38 79 0.0 0.0 0.00 0.00 0.00 90 4099.4
20260510101534 38 72 1.0 2.0 0.00 0.00 0.00 90 4099.4
20260510101032 38 63 1.0 1.0 0.00 0.00 0.00 90 4099.4
20260510100528 38 61 1.0 2.0 0.00 0.00 0.00 91 4099.4
20260510100025 38 67 1.0 2.0 0.00 0.00 0.00 91 4099.0
20260510095521 38 83 2.0 3.0 0.00 0.00 0.00 92 4099.4
20260510095020 38 69 1.0 2.0 0.00 0.00 0.00 93 4099.0
20260510094515 38 60 2.0 2.0 0.00 0.00 0.00 93 4099.0
20260510094011 38 101 0.0 1.0 0.00 0.00 0.00 93 4099.0
20260510093507 38 85 0.0 0.0 0.00 0.00 0.00 92 4098.7
20260510093004 39 69 1.0 2.0 0.00 0.00 0.00 92 4098.7
20260510092501 39 92 1.0 1.0 0.00 0.00 0.00 92 4098.7
20260510092000 39 88 0.0 1.0 0.00 0.00 0.00 93 4098.7
20260510091457 39 54 1.0 1.0 0.00 0.00 0.00 92 4098.7
20260510090953 40 75 0.0 0.0 0.00 0.00 0.00 93 4098.7
20260510090451 40 74 0.0 1.0 0.00 0.00 0.00 92 4098.7
20260510085946 40 76 1.0 1.0 0.00 0.00 0.00 92 4098.3
20260510085441 40 68 1.0 1.0 0.00 0.00 0.00 92 4098.7
20260510084937 40 61 1.0 1.0 0.00 0.00 0.00 91 4098.7
20260510084434 39 87 0.0 1.0 0.00 0.00 0.00 91 4098.7
20260510083931 39 77 1.0 2.0 0.00 0.00 0.00 93 4098.0
20260510083427 39 97 1.0 2.0 0.00 0.00 0.00 93 4098.3
20260510082923 39 69 0.0 1.0 0.00 0.00 0.00 92 4098.3
20260510082421 39 65 0.0 0.0 0.00 0.00 0.00 91 4098.3
20260510081919 39 84 0.0 0.0 0.00 0.00 0.00 90 4098.0
20260510081415 39 75 1.0 1.0 0.00 0.00 0.00 91 4098.0
20260510080912 39 78 0.0 1.0 0.00 0.00 0.00 91 4098.0
20260510080411 39 49 1.0 2.0 0.00 0.00 0.00 91 4097.7
20260510075908 39 70 2.0 3.0 0.00 0.00 0.00 91 4098.0
20260510075406 39 92 1.0 1.0 0.00 0.00 0.00 93 4098.0
20260510074903 39 17 2.0 2.0 0.00 0.00 0.00 96 4097.7
20260510074400 39 46 2.0 2.0 0.00 0.00 0.00 97 4097.7
20260510073856 39 47 1.0 1.0 0.00 0.00 0.00 97 4097.7
20260510073352 39 48 0.0 1.0 0.00 0.00 0.00 97 4097.3
20260510072848 39 48 0.0 0.0 0.00 0.00 0.00 97 4097.3
20260510072345 39 48 0.0 0.0 0.00 0.00 0.00 97 4097.0
20260510071841 39 48 0.0 1.0 0.00 0.00 0.00 97 4097.3
20260510071337 39 47 1.0 1.0 0.00 0.00 0.00 97 4097.3
20260510070836 39 47 1.0 1.0 0.00 0.00 0.00 97 4097.3
20260510070332 39 40 1.0 2.0 0.00 0.00 0.00 98 4097.0
20260510065827 38 72 0.0 0.0 0.00 0.00 0.00 97 4097.0
20260510065325 39 72 0.0 1.0 0.00 0.00 0.00 97 4097.0
20260510064821 39 74 1.0 1.0 0.00 0.00 0.00 97 4097.0
20260510064319 39 74 1.0 2.0 0.00 0.00 0.00 97 4097.0
20260510063815 39 75 1.0 1.0 0.00 0.00 0.00 97 4097.0
20260510063311 39 81 0.0 1.0 0.00 0.00 0.00 97 4097.0
20260510062808 39 87 0.0 0.0 0.00 0.00 0.00 97 4097.0
20260510062306 39 89 0.0 1.0 0.00 0.00 0.00 96 4097.0
20260510061759 39 91 0.0 1.0 0.00 0.00 0.00 94 4097.3
20260510061257 39 94 0.0 0.0 0.00 0.00 0.00 92 4097.0
20260510060752 39 100 0.0 0.0 0.00 0.00 0.00 92 4097.0
20260510060250 39 69 0.0 0.0 0.00 0.00 0.00 92 4097.0
20260510055746 39 63 1.0 2.0 0.00 0.00 0.00 93 4097.0
20260510055245 39 72 0.0 1.0 0.00 0.00 0.00 94 4096.5
20260510054744 39 68 1.0 2.0 0.00 0.00 0.00 95 4096.5
20260510054241 39 75 0.0 0.0 0.00 0.00 0.00 94 4096.5
20260510053740 39 73 1.0 1.0 0.00 0.00 0.00 94 4097.0
20260510053237 39 71 0.0 1.0 0.00 0.00 0.00 93 4097.0
20260510052732 39 81 0.0 0.0 0.00 0.00 0.00 94 4097.0
20260510052228 39 86 0.0 0.0 0.00 0.00 0.00 93 4097.0
20260510051724 39 88 0.0 0.0 0.00 0.00 0.00 91 4097.0
20260510051221 39 91 0.0 0.0 0.00 0.00 0.00 90 4096.5
20260510050718 40 80 0.0 1.0 0.00 0.00 0.00 90 4096.5
20260510050216 40 78 1.0 1.0 0.00 0.00 0.00 90 4097.0
20260510045712 40 73 2.0 3.0 0.00 0.00 0.00 89 4096.5
20260510045209 40 92 1.0 1.0 0.00 0.00 0.00 89 4096.5
20260510044705 40 100 0.0 0.0 0.00 0.00 0.00 88 4096.2
20260510044203 40 68 0.0 1.0 0.00 0.00 0.00 87 4096.5
20260510043658 40 73 0.0 1.0 0.00 0.00 0.00 88 4096.5
20260510043155 40 32 1.0 2.0 0.00 0.00 0.00 88 4096.2
20260510042652 40 67 2.0 2.0 0.00 0.00 0.00 88 4096.2
20260510042148 40 5 2.0 2.0 0.00 0.00 0.00 88 4096.2
20260510041646 40 77 2.0 2.0 0.00 0.00 0.00 87 4095.9
20260510041143 41 61 0.0 1.0 0.00 0.00 0.00 86 4096.2
20260510040640 41 66 1.0 1.0 0.00 0.00 0.00 86 4096.2
20260510040136 41 74 0.0 1.0 0.00 0.00 0.00 84 4096.2
20260510035632 41 66 0.0 1.0 0.00 0.00 0.00 84 4096.2
20260510035127 41 1 3.0 3.0 0.00 0.00 0.00 83 4095.9
20260510034624 41 66 1.0 2.0 0.00 0.00 0.00 83 4095.9
20260510034121 41 335 2.0 3.0 0.00 0.00 0.00 84 4095.9
20260510033618 41 70 1.0 1.0 0.00 0.00 0.00 82 4095.9
20260510033116 41 86 1.0 2.0 0.00 0.00 0.00 82 4095.9
20260510032612 41 86 1.0 1.0 0.00 0.00 0.00 82 4095.9
20260510032107 41 73 1.0 2.0 0.00 0.00 0.00 82 4095.5
20260510031602 41 57 0.0 0.0 0.00 0.00 0.00 82 4095.9
20260510031059 41 86 0.0 0.0 0.00 0.00 0.00 83 4095.5
20260510030554 41 113 2.0 2.0 0.00 0.00 0.00 82 4095.5
20260510030052 41 78 0.0 1.0 0.00 0.00 0.00 81 4095.9
20260510025549 41 80 2.0 5.0 0.00 0.00 0.00 81 4095.9
20260510025046 41 85 0.0 0.0 0.00 0.00 0.00 81 4095.5
20260510024543 41 115 1.0 2.0 0.00 0.00 0.00 81 4095.5
20260510024039 42 28 3.0 5.0 0.00 0.00 0.00 80 4095.5
20260510023535 42 78 1.0 1.0 0.00 0.00 0.00 80 4095.5
20260510023032 42 87 3.0 3.0 0.00 0.00 0.00 80 4095.5
20260510022532 42 52 2.0 2.0 0.00 0.00 0.00 80 4095.2
20260510022026 42 99 2.0 2.0 0.00 0.00 0.00 79 4095.2
20260510021523 42 83 1.0 2.0 0.00 0.00 0.00 80 4094.9
20260510021020 41 106 1.0 1.0 0.00 0.00 0.00 84 4094.9
20260510020515 41 71 3.0 3.0 0.00 0.00 0.00 87 4095.2
20260510020011 42 69 1.0 2.0 0.00 0.00 0.00 86 4094.9
20260510015506 42 80 1.0 1.0 0.00 0.00 0.00 85 4094.9
20260510015003 42 81 0.0 0.0 0.00 0.00 0.00 85 4094.5
20260510014500 42 82 0.0 0.0 0.00 0.00 0.00 83 4094.5
20260510013956 42 76 1.0 1.0 0.00 0.00 0.00 81 4094.5
20260510013450 43 343 0.0 0.0 0.00 0.00 0.00 80 4094.2
20260510012947 43 89 0.0 1.0 0.00 0.00 0.00 81 4094.2
20260510012442 43 70 2.0 3.0 0.00 0.00 0.00 81 4094.2
20260510011937 43 86 1.0 2.0 0.00 0.00 0.00 82 4093.8
20260510011432 43 99 1.0 2.0 0.00 0.00 0.00 81 4093.8
20260510010928 44 83 1.0 1.0 0.00 0.00 0.00 80 4093.8
20260510010426 44 78 1.0 1.0 0.00 0.00 0.00 80 4093.8
20260510005922 44 70 3.0 3.0 0.00 0.00 0.00 79 4093.5
20260510005418 44 61 0.0 1.0 0.00 0.00 0.00 80 4093.8
20260510004915 44 93 2.0 3.0 0.00 0.00 0.00 79 4093.5
20260510004413 44 77 2.0 3.0 0.00 0.00 0.00 77 4093.2
20260510003911 44 93 2.0 3.0 0.00 0.00 0.00 79 4093.2
20260510003408 45 98 2.0 2.0 0.00 0.00 0.00 80 4093.2
20260510002907 45 122 2.0 3.0 0.00 0.00 0.00 79 4093.2
20260510002404 46 15 1.0 2.0 0.00 0.00 0.00 75 4093.2
20260510001900 47 104 2.0 3.0 0.00 0.00 0.00 73 4093.2
20260510001358 47 345 3.0 8.0 0.00 0.00 0.00 71 4093.2
20260510000854 47 16 3.0 5.0 0.00 0.00 0.00 70 4092.8
20260510000351 47 11 6.0 9.0 0.00 0.00 0.00 71 4092.8
20260509235848 47 53 1.0 1.0 0.00 0.00 0.00 73 4092.5
20260509235344 47 355 1.0 1.0 0.00 0.00 0.00 74 4092.5
20260509234841 47 250 1.0 2.0 0.00 0.00 0.00 73 4092.5
20260509234337 47 52 2.0 2.0 0.00 0.00 0.00 78 4092.1
20260509233836 47 26 2.0 3.0 0.00 0.00 0.00 80 4092.1
20260509233333 47 112 1.0 2.0 0.00 0.00 0.00 80 4092.1
20260509232829 47 317 1.0 1.0 0.00 0.00 0.00 80 4092.1
20260509232327 47 41 2.0 3.0 0.00 0.00 0.00 79 4091.8
20260509231823 48 76 0.0 1.0 0.00 0.00 0.00 80 4092.1
20260509231319 49 352 0.0 1.0 0.00 0.00 0.00 78 4091.8
20260509230818 49 38 3.0 5.0 0.00 0.00 0.00 71 4091.5
20260509230314 50 341 5.0 8.0 0.00 0.00 0.00 70 4091.5
20260509225809 50 344 5.0 7.0 0.00 0.00 0.00 70 4091.1
20260509225306 51 327 2.0 3.0 0.00 0.00 0.00 70 4091.1
20260509224802 51 323 5.0 6.0 0.00 0.00 0.00 69 4090.8
20260509224259 51 76 1.0 2.0 0.00 0.00 0.00 70 4090.8
20260509223755 51 58 3.0 5.0 0.00 0.00 0.00 68 4090.5
20260509223253 51 213 2.0 3.0 0.00 0.00 0.00 71 4090.5
20260509222749 51 79 2.0 2.0 0.00 0.00 0.00 71 4090.5
20260509222245 51 52 3.0 5.0 0.00 0.00 0.00 68 4090.5
20260509221740 51 126 1.0 2.0 0.00 0.00 0.00 74 4090.1
20260509221237 51 24 1.0 1.0 0.00 0.00 0.00 73 4089.8
20260509220733 51 339 2.0 3.0 0.00 0.00 0.00 73 4089.8
20260509220230 50 310 3.0 5.0 0.00 0.00 0.00 74 4089.8
20260509215725 49 351 1.0 2.0 0.00 0.00 0.00 77 4089.8
20260509215221 50 325 2.0 3.0 0.00 0.00 0.00 77 4089.4
20260509214719 51 307 1.0 2.0 0.00 0.00 0.00 74 4089.4
20260509214216 51 294 2.0 2.0 0.00 0.00 0.00 74 4089.1
20260509213713 51 287 1.0 2.0 0.00 0.00 0.00 74 4089.1
20260509213208 51 320 0.0 1.0 0.00 0.00 0.00 73 4089.1
20260509212707 51 317 1.0 2.0 0.00 0.00 0.00 74 4089.1
20260509212203 51 329 1.0 2.0 0.00 0.00 0.00 73 4089.1
20260509211659 52 315 2.0 2.0 0.00 0.00 0.00 73 4088.7
20260509211155 52 290 2.0 2.0 0.00 0.00 0.00 70 4088.7
20260509210652 52 31 0.0 1.0 0.00 0.00 0.00 69 4088.7
20260509210150 52 327 3.0 3.0 0.00 0.00 0.00 67 4088.7
20260509205644 52 113 1.0 2.0 0.00 0.00 0.00 67 4088.3
20260509205139 52 315 2.0 2.0 0.00 0.00 0.00 67 4088.7
20260509204635 52 349 3.0 3.0 0.00 0.00 0.00 69 4088.7
20260509204131 52 1 4.0 7.0 0.00 0.00 0.00 69 4088.3
20260509203627 52 349 2.0 3.0 0.00 0.00 0.00 69 4088.0
20260509203126 51 340 2.0 3.0 0.00 0.00 0.00 70 4088.0
20260509202626 51 355 1.0 2.0 0.00 0.00 0.00 73 4088.0
20260509202121 52 354 1.0 1.0 0.00 0.00 0.00 72 4088.0
20260509201616 52 323 2.0 2.0 0.00 0.00 0.00 72 4087.6
20260509201114 53 349 1.0 2.0 0.00 0.00 0.00 71 4087.6
20260509200609 51 50 2.0 3.0 0.00 0.00 0.00 73 4087.6
20260509200105 51 17 1.0 1.0 0.00 0.00 0.00 74 4087.3
20260509195600 52 341 2.0 3.0 0.00 0.00 0.00 74 4087.3
20260509195050 53 41 0.0 0.0 0.00 0.00 0.00 69 4087.0
20260509194549 53 320 2.0 2.0 0.00 0.00 0.00 70 4087.0
20260509194048 55 318 1.0 2.0 0.00 0.00 0.00 67 4087.0
20260509193543 55 350 2.0 2.0 0.00 0.00 0.00 67 4087.0
20260509193039 56 30 2.0 2.0 0.00 0.00 0.00 64 4086.6
20260509192536 55 346 0.0 1.0 0.00 0.00 0.00 65 4087.0
20260509192031 55 31 2.0 2.0 0.00 0.00 0.00 67 4086.6
20260509191525 55 339 1.0 2.0 0.00 0.00 0.00 67 4086.3
20260509191021 55 33 1.0 2.0 0.00 0.00 0.00 68 4086.3
20260509190518 54 265 1.0 2.0 0.00 0.00 0.00 70 4086.3
20260509190017 54 335 0.0 1.0 0.00 0.00 0.00 71 4086.3
20260509185513 55 297 3.0 3.0 0.00 0.00 0.00 72 4086.0
20260509185009 56 284 1.0 2.0 0.00 0.00 0.00 69 4086.0
20260509184508 56 346 3.0 3.0 0.00 0.00 0.00 67 4086.3
20260509184004 54 23 1.0 1.0 0.00 0.00 0.00 70 4086.0
20260509183459 54 24 1.0 1.0 0.00 0.00 0.00 74 4086.0
20260509182955 53 30 1.0 1.0 0.00 0.00 0.00 79 4086.0
20260509182452 53 25 1.0 1.0 0.00 0.00 0.00 79 4086.0
20260509181949 54 39 1.0 1.0 0.00 0.00 0.00 78 4085.6
20260509181447 54 54 1.0 2.0 0.00 0.00 0.00 78 4085.6
20260509180945 54 61 0.0 0.0 0.00 0.00 0.00 80 4085.6
20260509180440 53 339 0.0 0.0 0.00 0.00 0.00 81 4085.3
20260509175937 52 339 0.0 0.0 0.00 0.00 0.00 81 4085.3
20260509175433 53 0 0.0 0.0 0.00 0.00 0.00 81 4085.3
20260509174930 53 0 0.0 0.0 0.00 0.00 0.00 81 4085.3
20260509174426 53 0 0.0 0.0 0.00 0.00 0.00 80 4085.3
20260509173922 54 0 0.0 0.0 0.00 0.00 0.00 79 4084.9
20260509173421 53 358 0.0 1.0 0.00 0.00 0.00 79 4085.3
20260509172918 52 25 2.0 2.0 0.00 0.00 0.00 80 4084.9
20260509172415 52 344 1.0 1.0 0.00 0.00 0.00 80 4084.9
20260509171911 52 351 0.0 1.0 0.00 0.00 0.00 81 4084.9
20260509171407 53 325 1.0 2.0 0.00 0.00 0.00 80 4084.9
20260509170903 53 354 1.0 2.0 0.00 0.00 0.00 81 4084.9
20260509170359 52 35 2.0 2.0 0.00 0.00 0.00 82 4084.6
20260509165855 51 33 1.0 2.0 0.00 0.00 0.00 83 4084.9
20260509165349 50 328 1.0 1.0 0.00 0.00 0.00 85 4084.6
20260509164845 49 76 1.0 2.0 0.00 0.00 0.00 87 4084.6
20260509164341 49 14 7.0 9.0 0.00 0.00 0.00 87 4084.6
20260509163837 50 331 4.0 5.0 0.00 0.00 0.00 87 4084.6
20260509163334 50 86 0.0 0.0 0.00 0.00 0.00 87 4084.6
20260509162833 50 110 1.0 1.0 0.00 0.00 0.00 87 4084.3
20260509162326 50 357 0.0 0.0 0.00 0.00 0.00 88 4084.3
20260509161823 50 216 1.0 2.0 0.00 0.00 0.00 87 4084.3
20260509161319 52 1 2.0 3.0 0.00 0.00 0.00 83 4084.3
20260509160814 51 43 0.0 1.0 0.00 0.00 0.00 84 4084.3
20260509160311 50 345 2.0 3.0 0.00 0.00 0.00 86 4084.3
20260509155806 50 12 2.0 2.0 0.00 0.00 0.00 86 4084.3
20260509155306 50 41 2.0 2.0 0.00 0.00 0.00 86 4084.3
20260509154759 50 33 2.0 2.0 0.00 0.00 0.00 86 4083.9
20260509154256 49 56 0.0 1.0 0.00 0.00 0.00 90 4083.9
20260509153753 48 359 1.0 2.0 0.00 0.00 0.00 90 4084.3
20260509153249 49 39 1.0 1.0 0.00 0.00 0.00 90 4083.6
20260509152746 49 41 2.0 2.0 0.00 0.00 0.00 90 4083.6
20260509152242 48 44 1.0 1.0 0.00 0.00 0.00 90 4083.6
20260509151739 49 104 1.0 2.0 0.00 0.00 0.00 88 4083.9
20260509151236 49 75 0.0 1.0 0.00 0.00 0.00 88 4083.9
20260509150734 49 241 0.0 1.0 0.00 0.00 0.00 88 4083.9
20260509150232 48 260 1.0 1.0 0.00 0.00 0.00 89 4083.9
20260509145728 49 49 0.0 1.0 0.00 0.00 0.00 88 4083.6
20260509145223 50 329 2.0 2.0 0.00 0.00 0.00 87 4083.6
20260509144720 50 354 1.0 1.0 0.00 0.00 0.00 86 4083.6
20260509144217 51 34 1.0 2.0 0.00 0.00 0.00 83 4083.6
20260509143714 53 58 1.0 2.0 0.00 0.00 0.00 80 4083.6
20260509143211 54 203 3.0 5.0 0.00 0.00 0.00 76 4083.6
20260509142706 54 87 1.0 2.0 0.00 0.00 0.00 75 4083.2
20260509142203 57 322 1.0 2.0 0.00 0.00 0.00 68 4083.2
20260509141659 55 162 1.0 1.0 0.00 0.00 0.00 70 4083.2
20260509141156 55 147 1.0 1.0 0.00 0.00 0.00 70 4083.2
20260509140653 55 146 0.0 1.0 0.00 0.00 0.00 66 4083.2
20260509140151 53 146 0.0 0.0 0.00 0.00 0.00 68 4083.2
20260509135648 54 146 2.0 2.0 0.00 0.00 0.00 68 4083.2
20260509135146 55 146 3.0 3.0 0.00 0.00 0.00 68 4083.2
20260509134642 55 123 0.0 0.0 0.00 0.00 0.00 69 4083.2
20260509134140 54 124 0.0 0.0 0.00 0.00 0.00 73 4083.2
20260509133637 53 124 0.0 0.0 0.00 0.00 0.00 72 4083.2
20260509133134 52 124 0.0 0.0 0.00 0.00 0.00 68 4083.6
20260509132632 51 124 0.0 0.0 0.00 0.00 0.00 72 4083.6
20260509132130 51 125 2.0 2.0 0.00 0.00 0.00 70 4083.6
20260509131626 51 125 0.0 0.0 0.00 0.00 0.00 70 4083.6
20260509131123 51 125 0.0 0.0 0.00 0.00 0.00 70 4083.9
20260509130619 51 125 0.0 0.0 0.00 0.00 0.00 71 4083.9
20260509130115 51 125 0.0 0.0 0.00 0.00 0.00 71 4083.9
20260509125612 51 124 0.0 0.0 0.00 0.00 0.00 73 4083.6
20260509125109 51 129 3.0 3.0 0.00 0.00 0.00 71 4083.6
20260509124605 50 129 0.0 1.0 0.00 0.00 0.00 72 4083.9
20260509124102 50 150 1.0 1.0 0.00 0.00 0.00 71 4083.6